This is the latest recevied weather packets stored in our database for station/object WA4TPR. If no packets are shown the sender has not sent any weather packets the latest 10 day(s).
| Time | Temp. | Humidity | Pressure | Rain* | Wind** | Luminosity | Snow |
|---|---|---|---|---|---|---|---|
| 1777162737 | 20.56° C | 98% | 1013.7 hPa | 0 mm | - | 0 W/m² | - |
| 1777162431 | 21.11° C | 97% | 1013.7 hPa | 0 mm | - | 0 W/m² | - |
| 1777162131 | 20.56° C | 97% | 1013.7 hPa | 0 mm | - | 0 W/m² | - |
| 1777161827 | 21.11° C | 96% | 1013.5 hPa | 0 mm | - | 1 W/m² | - |
| 1777161524 | 21.11° C | 96% | 1013.4 hPa | 0 mm | - | 2 W/m² | - |
| 1777161220 | 21.11° C | 96% | 1013.7 hPa | 0 mm | - | 5 W/m² | - |
| 1777160916 | 21.11° C | 96% | 1013.7 hPa | 0 mm | - | 8 W/m² | - |
| 1777160611 | 21.11° C | 95% | 1013.6 hPa | 0 mm | - | 13 W/m² | - |
| 1777160308 | 21.11° C | 95% | 1013.7 hPa | 0 mm | - | 25 W/m² | - |
| 1777160004 | 21.11° C | 95% | 1013.8 hPa | 0 mm | - | 35 W/m² | - |
| 1777159700 | 21.11° C | 95% | 1013.9 hPa | 0 mm | - | 54 W/m² | - |
| 1777159396 | 21.11° C | 95% | 1014 hPa | 0 mm | - | 61 W/m² | - |
| 1777159093 | 21.11° C | 95% | 1014.1 hPa | 3.05 mm | - | 88 W/m² | - |
| 1777158789 | 21.11° C | 96% | 1013.9 hPa | 31.75 mm | - | 108 W/m² | - |
| 1777158488 | 20.56° C | 95% | 1014.1 hPa | 43.18 mm | - | 106 W/m² | - |
| 1777158184 | 20° C | 95% | 1014.3 hPa | 39.62 mm | - | 80 W/m² | - |
| 1777157879 | 20° C | 97% | 1014.3 hPa | 48.51 mm | - | 58 W/m² | - |
| 1777157575 | 20° C | 97% | 1014.9 hPa | 18.03 mm | - | 24 W/m² | - |
| 1777157272 | 20.56° C | 96% | 1014.1 hPa | 0 mm | - | 15 W/m² | - |
| 1777156971 | 20.56° C | 96% | 1014 hPa | 0 mm | - | 16 W/m² | - |
| 1777156666 | 20.56° C | 96% | 1014.2 hPa | 0 mm | - | 20 W/m² | - |
| 1777156363 | 20° C | 96% | 1014.1 hPa | 0 mm | - | 26 W/m² | - |
| 1777156059 | 20° C | 96% | 1014.1 hPa | 0 mm | - | 30 W/m² | - |
| 1777155756 | 20° C | 97% | 1013.9 hPa | 1.78 mm | - | 42 W/m² | - |
| 1777155451 | 20° C | 97% | 1014.4 hPa | 1.27 mm | - | 50 W/m² | - |
* Rain latest hour (hover to see other rain measurements)
** Current wind speed in m/s (hover to see current wind gust speed)